TimeCST,TemperatureF,Dew PointF,Humidity,Sea Level PressureIn,VisibilityMPH,Wind Direction,Wind SpeedMPH,Gust SpeedMPH,PrecipitationIn,Events,Conditions,WindDirDegrees,DateUTC
12:15 AM,33.8,30.2,87,30.33,10.0,NE,8.1,-,N/A,,Clear,50,2013-02-09 06:15:00
12:35 AM,33.8,30.2,87,30.33,9.0,NE,8.1,-,N/A,,Clear,50,2013-02-09 06:35:00
1:15 AM,33.8,30.2,87,30.32,10.0,NE,9.2,-,N/A,,Clear,50,2013-02-09 07:15:00
1:35 AM,33.8,30.2,87,30.32,10.0,NE,9.2,-,N/A,,Clear,40,2013-02-09 07:35:00
2:15 AM,32.0,28.4,87,30.33,10.0,NE,6.9,-,N/A,,Clear,40,2013-02-09 08:15:00
2:55 AM,32.0,30.2,93,30.33,10.0,NE,8.1,-,N/A,,Clear,40,2013-02-09 08:55:00
3:16 AM,32.0,28.4,87,30.34,10.0,NE,6.9,-,N/A,,Scattered Clouds,40,2013-02-09 09:16:00
3:35 AM,33.8,30.2,87,30.34,10.0,NE,8.1,-,N/A,,Overcast,50,2013-02-09 09:35:00
3:55 AM,33.8,30.2,87,30.33,10.0,ENE,12.7,-,N/A,,Overcast,60,2013-02-09 09:55:00
4:15 AM,33.8,28.4,81,30.34,10.0,ENE,12.7,-,N/A,,Overcast,70,2013-02-09 10:15:00
4:36 AM,33.8,28.4,81,30.34,10.0,ENE,12.7,-,N/A,,Overcast,70,2013-02-09 10:36:00
4:55 AM,33.8,28.4,81,30.35,10.0,ENE,10.4,-,N/A,,Overcast,60,2013-02-09 10:55:00
5:15 AM,33.8,28.4,81,30.34,10.0,ENE,9.2,-,N/A,,Overcast,60,2013-02-09 11:15:00
5:55 AM,33.8,28.4,81,30.34,10.0,ENE,9.2,-,N/A,,Overcast,70,2013-02-09 11:55:00
6:15 AM,33.8,28.4,81,30.35,10.0,ENE,8.1,-,N/A,,Overcast,70,2013-02-09 12:15:00
6:35 AM,33.8,28.4,81,30.35,10.0,ENE,8.1,-,N/A,,Overcast,70,2013-02-09 12:35:00
6:56 AM,33.8,28.4,81,30.35,10.0,ENE,6.9,-,N/A,,Overcast,70,2013-02-09 12:56:00
7:15 AM,33.8,28.4,81,30.34,10.0,ENE,10.4,-,N/A,,Overcast,70,2013-02-09 13:15:00
7:35 AM,33.8,30.2,87,30.34,10.0,ENE,9.2,-,N/A,,Overcast,70,2013-02-09 13:35:00
7:55 AM,33.8,28.4,81,30.33,10.0,East,12.7,-,N/A,,Overcast,90,2013-02-09 13:55:00
8:15 AM,33.8,28.4,81,30.34,10.0,East,11.5,-,N/A,,Overcast,80,2013-02-09 14:15:00
8:35 AM,33.8,28.4,81,30.35,10.0,ENE,12.7,-,N/A,,Overcast,70,2013-02-09 14:35:00
8:55 AM,33.8,28.4,81,30.36,10.0,East,8.1,-,N/A,,Overcast,80,2013-02-09 14:55:00
9:35 AM,35.6,30.2,81,30.34,10.0,ENE,10.4,-,N/A,,Overcast,60,2013-02-09 15:35:00
9:55 AM,35.6,30.2,81,30.35,10.0,East,9.2,-,N/A,,Overcast,80,2013-02-09 15:55:00
10:15 AM,35.6,30.2,81,30.34,10.0,ENE,6.9,-,N/A,,Overcast,70,2013-02-09 16:15:00
10:36 AM,35.6,30.2,81,30.33,10.0,ENE,9.2,-,N/A,,Overcast,70,2013-02-09 16:36:00
10:55 AM,35.6,30.2,81,30.32,10.0,East,8.1,-,N/A,,Mostly Cloudy,80,2013-02-09 16:55:00
11:15 AM,37.4,30.2,75,30.32,10.0,NE,8.1,-,N/A,,Mostly Cloudy,50,2013-02-09 17:15:00
11:55 AM,37.4,30.2,75,30.29,10.0,ENE,5.8,-,N/A,,Overcast,60,2013-02-09 17:55:00
12:15 PM,37.4,32.0,81,30.29,10.0,Calm,Calm,-,N/A,,Overcast,0,2013-02-09 18:15:00
12:35 PM,39.2,32.0,75,30.27,10.0,NE,3.5,-,N/A,,Overcast,40,2013-02-09 18:35:00
1:15 PM,39.2,32.0,75,30.24,10.0,East,3.5,-,N/A,,Partly Cloudy,80,2013-02-09 19:15:00
1:35 PM,41.0,32.0,70,30.22,10.0,ENE,8.1,-,N/A,,Scattered Clouds,60,2013-02-09 19:35:00
1:55 PM,41.0,32.0,70,30.20,10.0,ENE,6.9,-,N/A,,Partly Cloudy,60,2013-02-09 19:55:00
2:16 PM,42.8,33.8,70,30.20,10.0,East,6.9,-,N/A,,Clear,90,2013-02-09 20:16:00
2:35 PM,42.8,33.8,70,30.18,10.0,East,9.2,-,N/A,,Clear,80,2013-02-09 20:35:00
3:15 PM,42.8,33.8,70,30.17,10.0,East,8.1,-,N/A,,Clear,80,2013-02-09 21:15:00
3:35 PM,42.8,33.8,70,30.17,10.0,East,8.1,-,N/A,,Clear,80,2013-02-09 21:35:00
3:55 PM,42.8,33.8,70,30.17,9.0,East,9.2,-,N/A,,Clear,80,2013-02-09 21:55:00
4:55 PM,42.8,35.6,76,30.14,10.0,East,9.2,-,N/A,,Partly Cloudy,80,2013-02-09 22:55:00
5:15 PM,42.8,35.6,76,30.13,10.0,East,10.4,-,N/A,,Clear,80,2013-02-09 23:15:00
6:15 PM,42.8,35.6,76,30.11,10.0,East,8.1,-,N/A,,Scattered Clouds,90,2013-02-10 00:15:00
6:35 PM,42.8,37.4,81,30.12,10.0,East,6.9,-,N/A,,Mostly Cloudy,90,2013-02-10 00:35:00
7:35 PM,42.8,39.2,87,30.11,8.0,NE,4.6,-,N/A,,Scattered Clouds,40,2013-02-10 01:35:00
8:15 PM,42.8,37.4,81,30.11,8.0,North,5.8,-,N/A,,Overcast,10,2013-02-10 02:15:00
8:35 PM,42.8,37.4,81,30.11,8.0,North,4.6,-,N/A,,Overcast,360,2013-02-10 02:35:00
9:15 PM,42.8,39.2,87,30.08,8.0,NNE,5.8,-,N/A,,Overcast,30,2013-02-10 03:15:00
9:35 PM,42.8,37.4,81,30.07,8.0,NE,5.8,-,N/A,,Mostly Cloudy,40,2013-02-10 03:35:00
9:55 PM,42.8,39.2,87,30.06,7.0,NE,8.1,-,N/A,,Overcast,50,2013-02-10 03:55:00
10:15 PM,42.8,39.2,87,30.05,7.0,NE,8.1,-,N/A,,Overcast,50,2013-02-10 04:15:00
10:35 PM,42.8,37.4,81,30.05,8.0,East,5.8,-,N/A,,Overcast,80,2013-02-10 04:35:00
10:55 PM,42.8,37.4,81,30.04,9.0,ENE,4.6,-,N/A,,Overcast,60,2013-02-10 04:55:00
11:55 PM,42.8,39.2,87,30.03,9.0,NE,4.6,-,N/A,,Overcast,50,2013-02-10 05:55:00